Вернуться в каталог

STARLINK-32620

АктивенСвязьVLEO
NORAD 61928·PAYLOAD·🇺🇸 United States

Запущен Nov 11, 2024 с Cape Canaveral Space Force Station

Loading…

Ближайшие Пролёты (ближайшие 24 часа)

TLE

СвежийSource: CelesTrak SupGP

Эпоха: Sep 15, 2026, 02:34 UTC

1 61928C 24207S   26258.10743056  .00020634  00000+0  74727-3 0  2582
2 61928  42.9999 292.0129 0001347 262.8209   2.3280 15.27572116    12

Отслеживайте STARLINK-32620 в реальном времени с AllMySat

Download on the App Store